[[{"header":{"parameterUnit":"m.s-1","parameterCategory":1,"la1":30.2991,"la2":30.254,"lo1":-89.0895,"lo2":-89.0444,"dy":0.0017,"dx":0.0017,"nx":28,"ny":28,"refTime":"2024-07-24T09:00:00:Z","depth":0,"parameterNumber":2,"parameterNumberName":"U-component_of_WINDS"},"data":[0,0,0,0,0,0,0,0,0,0,0,0,0,0,0,0,0,0,0,0,0,0,0,0,0,0,0,0,0,0,0,0,0,0,0,0,0,0,0,0,0,0,0,0,0,0,0,0,0,0,0,0,0,0,0,0,0,0,-2.9144,-2.9145,0,-2.928,-2.9282,-2.9283,-2.9239,-2.9236,-2.9233,-2.923,-2.9371,-2.9377,-2.9384,0,0,0,0,0,0,0,0,0,0,0,0,0,-2.8845,-2.8851,-2.9143,-2.9145,-2.9147,-2.928,-2.9282,-2.9283,-2.924,-2.9236,-2.9232,-2.9229,-2.9369,-2.9376,-2.9384,0,0,0,0,0,0,0,0,0,0,0,0,0,-2.8978,-2.8853,-2.9143,-2.9141,-2.9142,-2.9279,-2.9282,-2.9284,-2.924,-2.9236,-2.9231,-2.9227,-2.9366,-2.9376,-2.9385,-2.9533,0,0,-2.9415,-2.9419,0,0,0,0,0,0,0,0,-2.897,-2.8989,-2.914,-2.9141,-2.9143,-2.9238,-2.9228,-2.9368,-2.9241,-2.9203,-2.923,-2.9225,-2.933,-2.9343,-2.9378,-2.954,-2.9546,-2.9416,-2.9422,-2.9426,-2.9429,0,0,0,0,0,0,0,-2.8961,-2.8983,-2.9197,-2.9142,-2.9144,-2.9133,-2.9147,-2.9254,-2.929,-2.9206,-2.9203,-2.922,-2.933,-2.9369,-2.9381,-2.9548,-2.9416,-2.9424,-2.943,-2.9434,-2.9837,-2.9842,0,0,0,0,0,0,-2.8951,-2.8975,-2.9193,-2.9202,-2.9044,-2.9142,-2.9158,-2.9212,-2.9288,-2.9296,-2.9224,-2.9217,-2.9354,-2.937,-2.9386,-2.9563,-2.9426,-2.9435,-2.944,-2.9832,-2.9838,-2.9844,0,0,0,0,0,0,-2.8945,-2.8971,-2.9188,-2.9088,-2.9114,-2.9152,-2.9213,-2.9217,-2.9255,-2.9302,-2.9308,-2.9256,-2.9351,-2.9372,-2.9497,-2.9567,-2.9439,-2.9448,-2.9827,-2.9834,-2.9841,-2.9919,0,0,0,0,0,0,-2.8936,-2.8969,-2.9025,-2.9089,-2.912,-2.9296,-2.9218,-2.9223,-2.9272,-2.9265,-2.9334,-2.9341,-2.935,-2.9482,-2.9506,-2.9578,-2.9456,-2.982,-2.983,-2.9839,-2.991,-2.9928,-2.9944,0,0,0,0,0,-2.8926,-2.9042,-2.9028,-2.9055,-2.9191,-2.93,-2.9318,-2.9325,-2.9278,-2.9335,-2.9365,-2.9339,-2.9556,-2.9496,-2.9522,-2.9598,-2.9816,-2.9827,-2.9838,-2.9903,-2.9925,-2.9943,0,0,0,0,0,0,-2.8985,-2.905,-2.9036,-2.9176,-2.9233,-2.9293,-2.9365,-2.9348,-2.942,-2.9411,-2.9417,-2.9433,-2.956,-2.9592,-2.9523,-2.9745,-2.9679,-2.9696,-2.9719,-2.974,-2.9757,-2.9746,-2.9464,0,0,0,0,0,-2.9015,-2.9098,-2.915,-2.9269,-2.9298,-2.9327,-2.9375,-2.9376,-2.9435,-2.9459,-2.9498,-2.9556,-2.9638,-2.9691,-2.9769,-2.9915,-2.9929,-2.9981,-2.9997,-3.0011,-3.0025,-3.0104,-3.0127,-2.988,-2.988,-2.9879,0,0,-2.9076,-2.9122,-2.9174,-2.9282,-2.9326,-2.9412,-2.9347,-2.9441,-2.9505,-2.9473,-2.9592,-2.9623,-2.9689,-2.9825,-2.9887,-2.9855,-3.0096,-3.0025,-3.0035,-3.0042,-3.0117,-3.0141,-3.0162,-2.9887,-2.9886,-2.9885,0,0,-2.9232,-2.9276,-2.9379,-2.9425,-2.9492,-2.951,-2.9535,-2.9598,-2.9617,-2.9737,-2.9715,-2.9791,-2.9932,-2.9979,-3.0022,-3.0196,-3.0175,-3.0222,-3.0307,-3.0385,-3.0404,-3.0421,-3.0482,-3.0504,-3.0236,-3.0236,-3.0236,0,-2.93,-2.9428,-2.9434,-2.953,-2.9578,-2.9553,-2.9658,-2.9702,-2.9792,-2.9825,-2.9789,-2.9964,-3.0007,-3.0153,-3.0195,-3.0231,-3.026,-3.0213,-3.0401,-3.0418,-3.0434,-3.0493,-3.0516,-3.0241,-3.024,-3.024,-3.0239,0,-2.9508,-2.9597,-2.9673,-2.9759,-2.9816,-2.9916,-2.9937,-2.9994,-2.999,-3.0012,-3.0135,-3.0186,-3.0272,-3.0308,-3.0305,-3.0454,-3.0432,-3.0398,-3.0332,-3.0463,-3.0518,-3.054,-3.0248,-3.0247,-3.0245,-3.0244,0,0,-2.9704,-2.9793,-2.982,-2.9859,-2.9932,-3.0001,-3.01,-3.0185,-3.0233,-3.0297,-3.0379,-3.0498,-3.0467,-3.0516,-3.0519,-3.0587,-3.072,-3.0544,-3.0546,-3.0574,-3.0886,-3.091,-3.0936,-3.0707,-3.0712,-3.0715,-3.088,0,-2.9864,-3.0037,-3.0046,-3.0203,-3.0285,-3.0263,-3.0349,-3.0403,-3.0427,-3.0501,-3.0527,-3.0611,-3.0564,-3.0593,-3.066,-3.069,-3.0783,-3.0678,-3.0783,-3.0787,-3.0766,-3.0965,-3.099,-3.1143,-3.0902,-3.0905,-3.0908,0,-3.0074,-3.0144,-3.0309,-3.037,-3.0405,-3.0482,-3.056,-3.0631,-3.0692,-3.0704,-3.0759,-3.0752,-3.0853,-3.0784,-3.0923,-3.0852,-3.0896,-3.0917,-3.0923,-3.0932,-3.0854,-3.0977,-3.1193,-3.1215,-3.0942,-3.0939,-3.0937,0,-3.0199,-3.0334,-3.0449,-3.0484,-3.0558,-3.0613,-3.0646,-3.0703,-3.0754,-3.0823,-3.0855,-3.0935,-3.0979,-3.1041,-3.1056,-3.1005,-3.1194,-3.1127,-3.1207,-3.1206,-3.1246,-3.1243,-3.147,-3.1278,-3.1277,-3.1277,-3.1276,0,-3.0376,-3.0478,-3.0506,-3.0577,-3.0691,-3.07,-3.0812,-3.0842,-3.0893,-3.0969,-3.0956,-3.1028,-3.1044,-3.112,-3.1133,-3.1245,-3.1266,-3.1278,-3.128,-3.1278,-3.1276,-3.1306,-3.1295,-3.1283,-3.1281,-3.128,-3.1279,0,-3.0534,-3.0557,-3.0681,-3.0742,-3.076,-3.084,-3.0892,-3.096,-3.0983,-3.108,-3.1103,-3.1139,-3.1227,-3.1248,-3.1354,-3.1362,-3.1495,-3.1487,-3.1474,-3.1473,-3.1551,-3.1542,-3.1803,-3.1837,-3.1624,-3.1626,-3.1627,0,-3.0644,-3.0722,-3.0791,-3.0841,-3.0877,-3.0959,-3.101,-3.1022,-3.1076,-3.1152,-3.1211,-3.1298,-3.1368,-3.151,-3.1545,-3.1625,-3.1618,-3.1704,-3.163,-3.1626,-3.1618,-3.1612,-3.162,-3.1718,-3.172,-3.1722,-3.1723,0,-3.0838,-3.0846,-3.092,-3.0999,-3.106,-3.1123,-3.1183,-3.1225,-3.1246,-3.1307,-3.1397,-3.1451,-3.1559,-3.1645,-3.1726,-3.176,-3.1746,-3.1747,-3.1769,-3.1767,-3.1756,-3.1761,-3.151,-3.174,-3.1738,-3.1737,-3.1736,-3.1736,-3.0975,-3.1042,-3.1101,-3.1184,-3.1231,-3.1287,-3.1354,-3.1385,-3.146,-3.1548,-3.1551,-3.1649,-3.1708,-3.1815,-3.1855,-3.1931,-3.1905,-3.1938,-3.1946,-3.1953,-3.1959,-3.1745,-3.1946,-3.1946,-3.1946,-3.1945,-3.1945,0,-3.1166,-3.1203,-3.128,-3.1364,-3.1429,-3.141,-3.1475,-3.1531,-3.1617,-3.1674,-3.1743,-3.1846,-3.1929,-3.1971,-3.2054,-3.2107,-3.2102,-3.2128,-3.2123,-3.2131,-3.1979,-3.195,-3.2131,-3.2131,-3.213,-3.213,-3.213,-3.213,-3.1274,-3.1387,-3.1401,-3.1537,-3.1574,-3.1669,-3.1708,-3.1759,-3.1805,-3.192,-3.1989,-3.2016,-3.2067,-3.2153,-3.2229,-3.2239,-3.2269,-3.2298,-3.2305,-3.2161,-3.2142,-3.2124,-3.2097,-3.2305,-3.2306,-3.2451,-3.2452,-3.2453]},{"header":{"parameterUnit":"m.s-1","parameterCategory":1,"la1":30.2991,"la2":30.254,"lo1":-89.0895,"lo2":-89.0444,"dy":0.0017,"dx":0.0017,"nx":28,"ny":28,"refTime":"2024-07-24T09:00:00:Z","depth":0,"parameterNumber":3,"parameterNumberName":"V-component_of_WINDS"},"data":[0,0,0,0,0,0,0,0,0,0,0,0,0,0,0,0,0,0,0,0,0,0,0,0,0,0,0,0,0,0,0,0,0,0,0,0,0,0,0,0,0,0,0,0,0,0,0,0,0,0,0,0,0,0,0,0,0,0,1.6948,1.6948,0,1.6942,1.6942,1.6942,1.6871,1.687,1.6868,1.6866,1.6864,1.6865,1.6867,0,0,0,0,0,0,0,0,0,0,0,0,0,1.6902,1.6903,1.6948,1.6948,1.6948,1.6942,1.6942,1.6942,1.6872,1.687,1.6867,1.6865,1.6863,1.6865,1.6867,0,0,0,0,0,0,0,0,0,0,0,0,0,1.6912,1.6904,1.6948,1.6912,1.6909,1.6942,1.6942,1.6942,1.6872,1.687,1.6867,1.6864,1.6862,1.6865,1.6867,1.6935,0,0,1.6874,1.6875,0,0,0,0,0,0,0,0,1.6911,1.6913,1.6917,1.6915,1.6911,1.6905,1.6924,1.694,1.6873,1.6886,1.6866,1.6863,1.688,1.688,1.6885,1.6935,1.6935,1.6875,1.6876,1.6877,1.6878,0,0,0,0,0,0,0,1.6911,1.6913,1.6946,1.6918,1.6914,1.6897,1.6896,1.6927,1.6898,1.6885,1.688,1.688,1.6877,1.6883,1.6885,1.6935,1.6875,1.6877,1.6878,1.6879,1.704,1.7043,0,0,0,0,0,0,1.6915,1.6913,1.6946,1.6945,1.6904,1.69,1.6898,1.6909,1.6897,1.6893,1.6882,1.6877,1.688,1.6882,1.6884,1.6963,1.6877,1.6879,1.6881,1.7037,1.7041,1.7044,0,0,0,0,0,0,1.6914,1.6918,1.6946,1.6928,1.693,1.6904,1.6917,1.6911,1.6916,1.6895,1.689,1.6893,1.6878,1.6881,1.6923,1.6962,1.688,1.6882,1.7034,1.7038,1.7042,1.7121,0,0,0,0,0,0,1.6913,1.6918,1.6943,1.6929,1.6931,1.6984,1.6919,1.6913,1.692,1.6913,1.6904,1.69,1.6876,1.692,1.6925,1.6964,1.6884,1.703,1.7036,1.7041,1.7115,1.7128,1.7139,0,0,0,0,0,1.6911,1.6967,1.6945,1.6949,1.6962,1.6986,1.6988,1.6958,1.6924,1.6949,1.6935,1.6901,1.6957,1.6924,1.693,1.697,1.7028,1.7034,1.704,1.711,1.7125,1.7138,0,0,0,0,0,0,1.6987,1.6964,1.694,1.6992,1.6991,1.6974,1.7005,1.6975,1.6986,1.6979,1.6943,1.6941,1.6989,1.6983,1.6948,1.7035,1.6986,1.6994,1.7037,1.7051,1.7063,1.7064,1.6886,0,0,0,0,0,1.701,1.7031,1.7009,1.7058,1.7058,1.7032,1.7042,1.7019,1.7017,1.7017,1.7007,1.7008,1.7025,1.7038,1.7053,1.7114,1.7111,1.7144,1.7156,1.7166,1.7173,1.7205,1.7219,1.7065,1.7065,1.7065,0,0,1.7057,1.7047,1.7063,1.7073,1.7069,1.7093,1.7032,1.706,1.7077,1.7022,1.706,1.7053,1.7051,1.7103,1.7125,1.71,1.7215,1.7174,1.7182,1.7184,1.7213,1.7228,1.7241,1.7069,1.7068,1.7068,0,0,1.7155,1.715,1.7189,1.7187,1.7182,1.7164,1.7174,1.7161,1.7154,1.7191,1.7151,1.7171,1.7202,1.7203,1.7208,1.7305,1.7274,1.7312,1.7373,1.7405,1.7417,1.7428,1.7463,1.7476,1.7319,1.7319,1.7319,0,1.7215,1.7247,1.7213,1.7243,1.7248,1.7198,1.7238,1.7238,1.724,1.7245,1.7217,1.7255,1.725,1.7301,1.7325,1.733,1.7341,1.7313,1.7418,1.7428,1.7438,1.7471,1.7484,1.7324,1.7323,1.7323,1.7322,0,1.7321,1.7344,1.7377,1.7378,1.7387,1.7422,1.7394,1.7407,1.7384,1.7369,1.7408,1.7401,1.7414,1.7424,1.7402,1.7472,1.7457,1.7424,1.7374,1.7457,1.7488,1.7501,1.733,1.7329,1.7327,1.7326,0,0,1.7468,1.7449,1.7462,1.7461,1.7453,1.747,1.7503,1.7514,1.7527,1.753,1.7557,1.7584,1.7553,1.7558,1.7536,1.7563,1.7642,1.7526,1.7526,1.7548,1.7719,1.7745,1.776,1.762,1.7623,1.7625,1.772,0,1.7563,1.7616,1.7586,1.7644,1.7665,1.7617,1.7646,1.7644,1.7632,1.7648,1.7634,1.7654,1.7612,1.7615,1.764,1.7627,1.7676,1.7619,1.7646,1.7648,1.7649,1.7776,1.7803,1.7893,1.7731,1.7733,1.7735,0,1.7681,1.7687,1.7747,1.7734,1.7741,1.7768,1.7775,1.7791,1.7789,1.7778,1.7783,1.7754,1.7786,1.7736,1.778,1.7743,1.7752,1.7747,1.775,1.7752,1.7697,1.7782,1.7921,1.7935,1.7753,1.7752,1.7751,0,1.7782,1.7806,1.7844,1.7846,1.7831,1.7851,1.7846,1.784,1.7849,1.7856,1.7862,1.7873,1.788,1.789,1.7865,1.783,1.7913,1.786,1.7905,1.7906,1.7925,1.7924,1.8068,1.793,1.793,1.793,1.793,0,1.7892,1.793,1.789,1.7914,1.7956,1.7921,1.7964,1.7954,1.795,1.7972,1.7931,1.7953,1.7918,1.7937,1.7918,1.7957,1.7961,1.7953,1.7948,1.7957,1.7958,1.7963,1.7957,1.7933,1.7933,1.7932,1.7931,0,1.8013,1.7987,1.8026,1.8008,1.8005,1.8037,1.8022,1.8045,1.8028,1.8057,1.8062,1.8037,1.8057,1.8032,1.805,1.8037,1.8092,1.8077,1.8092,1.8088,1.8134,1.8131,1.8287,1.8306,1.8156,1.8157,1.8158,0,1.8084,1.8113,1.8098,1.8109,1.8106,1.8125,1.8133,1.8099,1.811,1.8109,1.8131,1.8147,1.8158,1.8192,1.8177,1.8191,1.8176,1.823,1.8178,1.8187,1.8178,1.8176,1.8179,1.8241,1.8243,1.8244,1.8245,0,1.8215,1.82,1.8213,1.8221,1.8231,1.8237,1.8239,1.8251,1.8216,1.823,1.8249,1.8257,1.8275,1.8292,1.8301,1.8297,1.8266,1.8262,1.8273,1.8283,1.8291,1.8288,1.8122,1.8258,1.8257,1.8256,1.8255,1.8255,1.8314,1.8336,1.8329,1.8345,1.8342,1.8345,1.8365,1.8351,1.8365,1.8376,1.8356,1.838,1.8377,1.8386,1.8386,1.8405,1.8382,1.8398,1.8402,1.8407,1.8414,1.8287,1.8406,1.8406,1.8406,1.8405,1.8405,0,1.8442,1.8435,1.8449,1.8453,1.8465,1.8433,1.8433,1.8446,1.8468,1.8466,1.8478,1.85,1.8516,1.8501,1.8514,1.8533,1.8519,1.8538,1.8536,1.8536,1.8434,1.8423,1.8549,1.8549,1.8548,1.8548,1.8548,1.8548,1.8511,1.8548,1.8532,1.8568,1.8561,1.8583,1.8586,1.8589,1.8588,1.8613,1.8626,1.8616,1.8609,1.8622,1.8636,1.8631,1.8638,1.8662,1.8653,1.8557,1.8543,1.853,1.8519,1.8664,1.8664,1.8753,1.8754,1.8755]}]]